• In Germany
  • List of Countries
  • For 7 days
  • Water Temperature
  • Satellite Maps
  • Weather Map
  • Weather Widgets
  • user-avatar
    Login

    Hourly Weather Lezhe

    Today, 25 September, Tuesday

    Time Temperature Precipitation Wind Pressure Humidity
    00:00 +13°C° 0 mm 6 mps 742 mmHg 62%
    01:00 +12°C° 0 mm 7 mps 742 mmHg 62%
    02:00 +11°C° 0 mm 7 mps 743 mmHg 62%
    03:00 +10°C° 0 mm 7 mps 743 mmHg 62%
    04:00 +10°C° 0 mm 7 mps 743 mmHg 61%
    05:00 +10°C° 0 mm 7 mps 743 mmHg 59%
    06:00 +10°C° 0 mm 7 mps 744 mmHg 57%
    07:00 +11°C° 0 mm 8 mps 744 mmHg 53%
    08:00 +14°C° 0 mm 7 mps 744 mmHg 47%
    09:00 +15°C° 0 mm 7 mps 744 mmHg 40%
    10:00 +17°C° 0 mm 6 mps 744 mmHg 33%
    11:00 +19°C° 0 mm 6 mps 744 mmHg 31%
    12:00 +20°C° 0 mm 6 mps 744 mmHg 28%
    13:00 +21°C° 0 mm 6 mps 743 mmHg 26%
    14:00 +21°C° 0 mm 6 mps 743 mmHg 27%
    15:00 +20°C° 0 mm 6 mps 743 mmHg 28%
    16:00 +20°C° 0 mm 6 mps 743 mmHg 29%
    17:00 +17°C° 0 mm 6 mps 744 mmHg 34%
    18:00 +14°C° 0 mm 6 mps 744 mmHg 39%
    19:00 +11°C° 0 mm 6 mps 745 mmHg 44%
    20:00 +11°C° 0 mm 6 mps 745 mmHg 46%
    21:00 +10°C° 0 mm 6 mps 746 mmHg 49%
    22:00 +9°C° 0 mm 6 mps 746 mmHg 51%
    23:00 +9°C° 0 mm 6 mps 746 mmHg 52%

    Tomorrow, 26 September, Wednesday

    Time Temperature Precipitation Wind Pressure Humidity
    00:00 +8°C° 0 mm 6 mps 747 mmHg 53%
    01:00 +8°C° 0 mm 6 mps 747 mmHg 54%
    02:00 +7°C° 0 mm 6 mps 747 mmHg 55%
    03:00 +7°C° 0 mm 6 mps 747 mmHg 55%
    04:00 +7°C° 0 mm 6 mps 747 mmHg 56%
    05:00 +7°C° 0 mm 6 mps 747 mmHg 53%
    06:00 +8°C° 0 mm 7 mps 747 mmHg 49%
    07:00 +9°C° 0 mm 7 mps 747 mmHg 46%
    08:00 +11°C° 0 mm 7 mps 747 mmHg 40%
    09:00 +14°C° 0 mm 7 mps 747 mmHg 35%
    10:00 +16°C° 0 mm 7 mps 747 mmHg 29%
    11:00 +16°C° 0 mm 7 mps 747 mmHg 27%
    12:00 +17°C° 0 mm 7 mps 747 mmHg 25%
    13:00 +18°C° 0 mm 7 mps 747 mmHg 23%
    14:00 +18°C° 0 mm 7 mps 746 mmHg 24%
    15:00 +17°C° 0 mm 6 mps 746 mmHg 25%
    16:00 +17°C° 0 mm 6 mps 746 mmHg 26%
    17:00 +15°C° 0 mm 6 mps 747 mmHg 31%
    18:00 +13°C° 0 mm 6 mps 747 mmHg 36%
    19:00 +9°C° 0 mm 5 mps 748 mmHg 41%
    20:00 +9°C° 0 mm 5 mps 748 mmHg 44%
    21:00 +8°C° 0 mm 5 mps 749 mmHg 46%
    22:00 +7°C° 0 mm 5 mps 749 mmHg 48%
    23:00 +7°C° 0 mm 5 mps 749 mmHg 48%

    Day after tomorrow, 27 September, Thursday

    Time Temperature Precipitation Wind Pressure Humidity
    00:00 +7°C° 0 mm 5 mps 749 mmHg 49%
    01:00 +6°C° 0 mm 5 mps 749 mmHg 49%
    02:00 +6°C° 0 mm 5 mps 748 mmHg 49%
    03:00 +6°C° 0 mm 5 mps 748 mmHg 48%
    04:00 +6°C° 0 mm 5 mps 748 mmHg 48%
    05:00 +7°C° 0 mm 5 mps 748 mmHg 45%
    06:00 +8°C° 0 mm 5 mps 747 mmHg 42%
    07:00 +9°C° 0 mm 5 mps 747 mmHg 39%
    08:00 +13°C° 0 mm 5 mps 747 mmHg 34%
    09:00 +15°C° 0 mm 5 mps 747 mmHg 28%
    10:00 +19°C° 0 mm 5 mps 746 mmHg 23%
    11:00 +20°C° 0 mm 5 mps 746 mmHg 22%
    12:00 +21°C° 0 mm 5 mps 745 mmHg 20%
    13:00 +22°C° 0 mm 5 mps 745 mmHg 19%
    14:00 +22°C° 0 mm 5 mps 744 mmHg 20%
    15:00 +22°C° 0 mm 5 mps 744 mmHg 21%
    16:00 +21°C° 0 mm 5 mps 743 mmHg 23%
    17:00 +19°C° 0 mm 5 mps 743 mmHg 27%
    18:00 +15°C° 0 mm 4 mps 743 mmHg 32%
    19:00 +13°C° 0 mm 4 mps 744 mmHg 36%
    20:00 +12°C° 0 mm 4 mps 744 mmHg 38%
    21:00 +12°C° 0 mm 4 mps 744 mmHg 39%
    22:00 +11°C° 0 mm 4 mps 744 mmHg 41%
    23:00 +11°C° 0 mm 4 mps 743 mmHg 41%

    28 September, Friday

    Time Temperature Precipitation Wind Pressure Humidity
    00:00 +11°C° 0 mm 4 mps 743 mmHg 41%
    01:00 +10°C° 0 mm 4 mps 743 mmHg 41%
    02:00 +10°C° 0 mm 4 mps 742 mmHg 40%
    03:00 +10°C° 0 mm 4 mps 742 mmHg 40%
    04:00 +10°C° 0 mm 4 mps 741 mmHg 40%
    05:00 +11°C° 0 mm 4 mps 741 mmHg 38%
    06:00 +12°C° 0 mm 4 mps 741 mmHg 37%
    07:00 +13°C° 0 mm 4 mps 740 mmHg 35%
    08:00 +17°C° 0 mm 4 mps 740 mmHg 30%
    09:00 +20°C° 0 mm 4 mps 740 mmHg 24%
    10:00 +24°C° 0 mm 3 mps 739 mmHg 19%
    11:00 +25°C° 0 mm 3 mps 739 mmHg 18%
    12:00 +26°C° 0 mm 3 mps 738 mmHg 17%
    13:00 +27°C° 0 mm 3 mps 738 mmHg 16%
    14:00 +27°C° 0 mm 3 mps 737 mmHg 17%
    15:00 +26°C° 0 mm 3 mps 737 mmHg 19%
    16:00 +26°C° 0 mm 3 mps 736 mmHg 21%
    17:00 +22°C° 0 mm 3 mps 736 mmHg 23%
    18:00 +19°C° 0 mm 3 mps 737 mmHg 26%
    19:00 +17°C° 0 mm 3 mps 737 mmHg 28%
    20:00 +16°C° 0 mm 3 mps 737 mmHg 27%
    21:00 +16°C° 0 mm 3 mps 737 mmHg 25%
    22:00 +16°C° 0 mm 3 mps 737 mmHg 24%
    23:00 +16°C° 0 mm 3 mps 737 mmHg 24%

    29 September, Saturday

    Time Temperature Precipitation Wind Pressure Humidity
    00:00 +16°C° 0 mm 3 mps 737 mmHg 24%
    01:00 +16°C° 0 mm 3 mps 737 mmHg 24%
    02:00 +16°C° 0 mm 3 mps 737 mmHg 24%
    03:00 +14°C° 0 mm 3 mps 736 mmHg 25%
    04:00 +14°C° 0 mm 3 mps 736 mmHg 25%
    05:00 +16°C° 0 mm 3 mps 736 mmHg 26%
    06:00 +16°C° 0 mm 3 mps 736 mmHg 27%
    07:00 +17°C° 0 mm 3 mps 737 mmHg 29%
    08:00 +19°C° 0 mm 3 mps 736 mmHg 26%
    09:00 +22°C° 0 mm 3 mps 736 mmHg 24%
    10:00 +25°C° 0 mm 3 mps 736 mmHg 22%
    11:00 +26°C° 0 mm 3 mps 736 mmHg 22%
    12:00 +27°C° 0 mm 4 mps 736 mmHg 23%
    13:00 +28°C° 0 mm 4 mps 735 mmHg 23%
    14:00 +27°C° 0 mm 4 mps 735 mmHg 25%
    15:00 +27°C° 0 mm 4 mps 735 mmHg 26%
    16:00 +26°C° 0 mm 5 mps 735 mmHg 27%
    17:00 +23°C° 0 mm 5 mps 735 mmHg 32%
    18:00 +21°C° 0 mm 5 mps 736 mmHg 37%
    19:00 +19°C° 0 mm 4 mps 736 mmHg 42%
    20:00 +17°C° 0 mm 5 mps 737 mmHg 46%
    21:00 +16°C° 0 mm 5 mps 737 mmHg 49%
    22:00 +16°C° 0 mm 5 mps 737 mmHg 53%
    23:00 +15°C° 0 mm 5 mps 737 mmHg 54%

    30 September, Sunday

    Time Temperature Precipitation Wind Pressure Humidity
    00:00 +15°C° 0 mm 5 mps 737 mmHg 56%
    01:00 +15°C° 0 mm 4 mps 737 mmHg 57%
    02:00 +14°C° 0 mm 4 mps 737 mmHg 59%
    03:00 +14°C° 0 mm 4 mps 737 mmHg 60%
    04:00 +14°C° 0 mm 4 mps 737 mmHg 62%
    05:00 +14°C° 0 mm 4 mps 737 mmHg 61%
    06:00 +15°C° 0 mm 5 mps 737 mmHg 60%
    07:00 +15°C° 0 mm 5 mps 737 mmHg 59%
    08:00 +19°C° 0 mm 4 mps 737 mmHg 52%
    09:00 +21°C° 0 mm 4 mps 737 mmHg 45%
    10:00 +23°C° 0 mm 4 mps 737 mmHg 39%
    11:00 +25°C° 0 mm 4 mps 737 mmHg 37%
    12:00 +26°C° 0 mm 3 mps 737 mmHg 35%
    13:00 +27°C° 0 mm 3 mps 737 mmHg 32%
    14:00 +26°C° 0 mm 3 mps 736 mmHg 34%
    15:00 +26°C° 0 mm 4 mps 736 mmHg 35%
    16:00 +25°C° 0 mm 4 mps 736 mmHg 37%
    17:00 +22°C° 0 mm 4 mps 736 mmHg 42%
    18:00 +20°C° 0 mm 3 mps 736 mmHg 48%
    19:00 +18°C° 0 mm 3 mps 737 mmHg 54%
    20:00 +17°C° 0 mm 3 mps 737 mmHg 55%
    21:00 +17°C° 0 mm 3 mps 737 mmHg 57%
    22:00 +16°C° 0 mm 2 mps 737 mmHg 59%
    23:00 +16°C° 0 mm 2 mps 737 mmHg 61%
    Show more